owner,sensor,date,latitude,longitude,vertical_datum,wind_speed,wind_to_direction,wind_speed_of_gust,qcFlag 
WAVCIS,ioos:station:WAVCIS:CSI06:1,2013-09-03T21:00:00Z,28.8667,-90.4833,10.0,2.092,211.0,,'11111222,11111222,99999999' 
WAVCIS,ioos:station:WAVCIS:CSI06:1,2013-09-03T22:00:00Z,28.8667,-90.4833,10.0,2.214,193.0,,'11111222,11111222,99999999' 
WAVCIS,ioos:station:WAVCIS:CSI06:1,2013-09-03T23:00:00Z,28.8667,-90.4833,10.0,2.506,206.0,,'11111222,11111222,99999999' 
WAVCIS,ioos:station:WAVCIS:CSI06:1,2013-09-04T00:00:00Z,28.8667,-90.4833,10.0,1.754,198.0,,'11111222,11111222,99999999' 
WAVCIS,ioos:station:WAVCIS:CSI06:1,2013-09-04T01:00:00Z,28.8667,-90.4833,10.0,2.615,160.0,,'11111222,11111222,99999999' 
WAVCIS,ioos:station:WAVCIS:CSI06:1,2013-09-04T02:00:00Z,28.8667,-90.4833,10.0,4.015,169.0,,'11111222,11111222,99999999' 
WAVCIS,ioos:station:WAVCIS:CSI06:1,2013-09-04T03:00:00Z,28.8667,-90.4833,10.0,1.847,186.0,,'11111222,11111222,99999999' 
WAVCIS,ioos:station:WAVCIS:CSI06:1,2013-09-04T04:00:00Z,28.8667,-90.4833,10.0,1.921,176.0,,'11111222,11111222,99999999' 
WAVCIS,ioos:station:WAVCIS:CSI06:1,2013-09-04T05:00:00Z,28.8667,-90.4833,10.0,2.636,184.0,,'11111222,11111222,99999999' 
WAVCIS,ioos:station:WAVCIS:CSI06:1,2013-09-04T06:00:00Z,28.8667,-90.4833,10.0,2.193,203.0,,'11111222,11111222,99999999' 
WAVCIS,ioos:station:WAVCIS:CSI06:1,2013-09-04T07:00:00Z,28.8667,-90.4833,10.0,1.596,164.0,,'11111222,11111222,99999999' 
WAVCIS,ioos:station:WAVCIS:CSI06:1,2013-09-04T08:00:00Z,28.8667,-90.4833,10.0,0.423,77.0,,'11111222,11111222,99999999' 
WAVCIS,ioos:station:WAVCIS:CSI06:1,2013-09-04T09:00:00Z,28.8667,-90.4833,10.0,0.458,86.0,,'11111222,11111222,99999999' 
WAVCIS,ioos:station:WAVCIS:CSI06:1,2013-09-04T10:00:00Z,28.8667,-90.4833,10.0,1.967,109.0,,'11111222,11111222,99999999' 
WAVCIS,ioos:station:WAVCIS:CSI06:1,2013-09-04T11:00:00Z,28.8667,-90.4833,10.0,2.082,113.0,,'11111222,11111222,99999999' 
WAVCIS,ioos:station:WAVCIS:CSI06:1,2013-09-04T12:00:00Z,28.8667,-90.4833,10.0,1.466,104.0,,'11111222,11111222,99999999' 
WAVCIS,ioos:station:WAVCIS:CSI06:1,2013-09-04T13:00:00Z,28.8667,-90.4833,10.0,2.061,101.0,,'11111222,11111222,99999999' 
WAVCIS,ioos:station:WAVCIS:CSI06:1,2013-09-04T14:00:00Z,28.8667,-90.4833,10.0,2.42,102.0,,'11111222,11111222,99999999' 
WAVCIS,ioos:station:WAVCIS:CSI06:1,2013-09-04T15:00:00Z,28.8667,-90.4833,10.0,2.959,91.0,,'11111222,11111222,99999999' 
WAVCIS,ioos:station:WAVCIS:CSI06:1,2013-09-04T16:00:00Z,28.8667,-90.4833,10.0,2.532,115.0,,'11111222,11111222,99999999' 
WAVCIS,ioos:station:WAVCIS:CSI06:1,2013-09-04T17:00:00Z,28.8667,-90.4833,10.0,2.672,98.0,,'11111222,11111222,99999999' 
WAVCIS,ioos:station:WAVCIS:CSI06:1,2013-09-04T18:00:00Z,28.8667,-90.4833,10.0,2.841,113.0,,'11111222,11111222,99999999' 
WAVCIS,ioos:station:WAVCIS:CSI06:1,2013-09-04T19:00:00Z,28.8667,-90.4833,10.0,3.439,105.0,,'11111222,11111222,99999999' 
WAVCIS,ioos:station:WAVCIS:CSI06:1,2013-09-04T20:00:00Z,28.8667,-90.4833,10.0,3.626,113.0,,'11111222,11111222,99999999' 
WAVCIS,ioos:station:WAVCIS:CSI06:1,2013-09-04T21:00:00Z,28.8667,-90.4833,10.0,3.949,121.0,,'11111222,11111222,99999999' 
WAVCIS,ioos:station:WAVCIS:CSI06:1,2013-09-04T22:00:00Z,28.8667,-90.4833,10.0,4.033,128.0,,'11111222,11111222,99999999' 
WAVCIS,ioos:station:WAVCIS:CSI06:1,2013-09-04T23:00:00Z,28.8667,-90.4833,10.0,5.61,137.0,,'11111222,11111222,99999999' 
WAVCIS,ioos:station:WAVCIS:CSI06:1,2013-09-05T00:00:00Z,28.8667,-90.4833,10.0,4.096,138.0,,'11111222,11111222,99999999' 
WAVCIS,ioos:station:WAVCIS:CSI06:1,2013-09-05T01:00:00Z,28.8667,-90.4833,10.0,4.018,129.0,,'11111222,11111222,99999999' 
WAVCIS,ioos:station:WAVCIS:CSI06:1,2013-09-05T02:00:00Z,28.8667,-90.4833,10.0,3.61,113.0,,'11111222,11111222,99999999' 
WAVCIS,ioos:station:WAVCIS:CSI06:1,2013-09-05T03:00:00Z,28.8667,-90.4833,10.0,3.936,101.0,,'11111222,11111222,99999999' 
WAVCIS,ioos:station:WAVCIS:CSI06:1,2013-09-05T04:00:00Z,28.8667,-90.4833,10.0,3.484,118.0,,'11111222,11111222,99999999' 
WAVCIS,ioos:station:WAVCIS:CSI06:1,2013-09-05T05:00:00Z,28.8667,-90.4833,10.0,2.988,121.0,,'11111222,11111222,99999999' 
WAVCIS,ioos:station:WAVCIS:CSI06:1,2013-09-05T06:00:00Z,28.8667,-90.4833,10.0,2.67,117.0,,'11111222,11111222,99999999' 
WAVCIS,ioos:station:WAVCIS:CSI06:1,2013-09-05T07:00:00Z,28.8667,-90.4833,10.0,1.468,131.0,,'11111222,11111222,99999999' 
WAVCIS,ioos:station:WAVCIS:CSI06:1,2013-09-05T08:00:00Z,28.8667,-90.4833,10.0,0.945,120.0,,'11111222,11111222,99999999' 
WAVCIS,ioos:station:WAVCIS:CSI06:1,2013-09-05T09:00:00Z,28.8667,-90.4833,10.0,2.977,104.0,,'11111222,11111222,99999999' 
WAVCIS,ioos:station:WAVCIS:CSI06:1,2013-09-05T10:00:00Z,28.8667,-90.4833,10.0,2.443,170.0,,'11111222,11111222,99999999' 
WAVCIS,ioos:station:WAVCIS:CSI06:1,2013-09-05T11:00:00Z,28.8667,-90.4833,10.0,1.416,220.0,,'11111222,11111222,99999999' 
WAVCIS,ioos:station:WAVCIS:CSI06:1,2013-09-05T12:00:00Z,28.8667,-90.4833,10.0,0.674,45.0,,'11111222,11111222,99999999' 
WAVCIS,ioos:station:WAVCIS:CSI06:1,2013-09-05T13:00:00Z,28.8667,-90.4833,10.0,5.206,88.0,,'11111222,11111222,99999999' 
WAVCIS,ioos:station:WAVCIS:CSI06:1,2013-09-05T14:00:00Z,28.8667,-90.4833,10.0,4.48,85.0,,'11111222,11111222,99999999' 
WAVCIS,ioos:station:WAVCIS:CSI06:1,2013-09-05T15:00:00Z,28.8667,-90.4833,10.0,5.448,102.0,,'11111222,11111222,99999999' 
WAVCIS,ioos:station:WAVCIS:CSI06:1,2013-09-05T16:00:00Z,28.8667,-90.4833,10.0,6.158,104.0,,'11111222,11111222,99999999' 
WAVCIS,ioos:station:WAVCIS:CSI06:1,2013-09-05T17:00:00Z,28.8667,-90.4833,10.0,5.812,113.0,,'11111222,11111222,99999999' 
WAVCIS,ioos:station:WAVCIS:CSI06:1,2013-09-05T18:00:00Z,28.8667,-90.4833,10.0,5.972,97.0,,'11111222,11111222,99999999' 
WAVCIS,ioos:station:WAVCIS:CSI06:1,2013-09-05T19:00:00Z,28.8667,-90.4833,10.0,6.121,97.0,,'11111222,11111222,99999999' 
WAVCIS,ioos:station:WAVCIS:CSI06:1,2013-09-05T20:00:00Z,28.8667,-90.4833,10.0,6.247,101.0,,'11111222,11111222,99999999' 
WAVCIS,ioos:station:WAVCIS:CSI06:1,2013-09-05T21:00:00Z,28.8667,-90.4833,10.0,5.95,94.0,,'11111222,11111222,99999999' 
WAVCIS,ioos:station:WAVCIS:CSI06:1,2013-09-05T22:00:00Z,28.8667,-90.4833,10.0,6.728,110.0,,'11111222,11111222,99999999' 
WAVCIS,ioos:station:WAVCIS:CSI06:1,2013-09-05T23:00:00Z,28.8667,-90.4833,10.0,8.33,118.0,,'11111222,11111222,99999999' 
WAVCIS,ioos:station:WAVCIS:CSI06:1,2013-09-06T00:00:00Z,28.8667,-90.4833,10.0,6.496,115.0,,'11111222,11111222,99999999' 
WAVCIS,ioos:station:WAVCIS:CSI06:1,2013-09-06T01:00:00Z,28.8667,-90.4833,10.0,7.16,119.0,,'11111222,11111222,99999999' 
WAVCIS,ioos:station:WAVCIS:CSI06:1,2013-09-06T02:00:00Z,28.8667,-90.4833,10.0,5.595,104.0,,'11111222,11111222,99999999' 
WAVCIS,ioos:station:WAVCIS:CSI06:1,2013-09-06T03:00:00Z,28.8667,-90.4833,10.0,4.595,102.0,,'11111222,11111222,99999999' 
WAVCIS,ioos:station:WAVCIS:CSI06:1,2013-09-06T04:00:00Z,28.8667,-90.4833,10.0,4.185,86.0,,'11111222,11111222,99999999' 
WAVCIS,ioos:station:WAVCIS:CSI06:1,2013-09-06T05:00:00Z,28.8667,-90.4833,10.0,4.425,89.0,,'11111222,11111222,99999999' 
WAVCIS,ioos:station:WAVCIS:CSI06:1,2013-09-06T06:00:00Z,28.8667,-90.4833,10.0,6.175,90.0,,'11111222,11111222,99999999' 
WAVCIS,ioos:station:WAVCIS:CSI06:1,2013-09-06T07:00:00Z,28.8667,-90.4833,10.0,5.55,100.0,,'11111222,11111222,99999999' 
WAVCIS,ioos:station:WAVCIS:CSI06:1,2013-09-06T08:00:00Z,28.8667,-90.4833,10.0,6.297,100.0,,'11111222,11111222,99999999' 
WAVCIS,ioos:station:WAVCIS:CSI06:1,2013-09-06T09:00:00Z,28.8667,-90.4833,10.0,5.288,101.0,,'11111222,11111222,99999999' 
WAVCIS,ioos:station:WAVCIS:CSI06:1,2013-09-06T10:00:00Z,28.8667,-90.4833,10.0,4.229,120.0,,'11111222,11111222,99999999' 
WAVCIS,ioos:station:WAVCIS:CSI06:1,2013-09-06T11:00:00Z,28.8667,-90.4833,10.0,4.834,111.0,,'11111222,11111222,99999999' 
WAVCIS,ioos:station:WAVCIS:CSI06:1,2013-09-06T12:00:00Z,28.8667,-90.4833,10.0,4.678,89.0,,'11111222,11111222,99999999' 
WAVCIS,ioos:station:WAVCIS:CSI06:1,2013-09-06T13:00:00Z,28.8667,-90.4833,10.0,4.64,81.0,,'11111222,11111222,99999999' 
WAVCIS,ioos:station:WAVCIS:CSI06:1,2013-09-06T14:00:00Z,28.8667,-90.4833,10.0,6.364,75.0,,'11111222,11111222,99999999' 
WAVCIS,ioos:station:WAVCIS:CSI06:1,2013-09-06T15:00:00Z,28.8667,-90.4833,10.0,5.745,66.0,,'11111222,11111222,99999999' 
WAVCIS,ioos:station:WAVCIS:CSI06:1,2013-09-06T16:00:00Z,28.8667,-90.4833,10.0,6.244,79.0,,'11111222,11111222,99999999' 
WAVCIS,ioos:station:WAVCIS:CSI06:1,2013-09-06T17:00:00Z,28.8667,-90.4833,10.0,7.34,81.0,,'11111222,11111222,99999999' 
WAVCIS,ioos:station:WAVCIS:CSI06:1,2013-09-06T18:00:00Z,28.8667,-90.4833,10.0,5.188,60.0,,'11111222,11111222,99999999' 
WAVCIS,ioos:station:WAVCIS:CSI06:1,2013-09-06T19:00:00Z,28.8667,-90.4833,10.0,6.885,91.0,,'11111222,11111222,99999999' 
WAVCIS,ioos:station:WAVCIS:CSI06:1,2013-09-06T20:00:00Z,28.8667,-90.4833,10.0,6.74,101.0,,'11111222,11111222,99999999' 
WAVCIS,ioos:station:WAVCIS:CSI06:1,2013-09-06T21:00:00Z,28.8667,-90.4833,10.0,5.82,102.0,,'11111222,11111222,99999999' 
WAVCIS,ioos:station:WAVCIS:CSI06:1,2013-09-06T22:00:00Z,28.8667,-90.4833,10.0,6.29,93.0,,'11111222,11111222,99999999' 
WAVCIS,ioos:station:WAVCIS:CSI06:1,2013-09-06T23:00:00Z,28.8667,-90.4833,10.0,4.307,109.0,,'11111222,11111222,99999999' 
WAVCIS,ioos:station:WAVCIS:CSI06:1,2013-09-07T00:00:00Z,28.8667,-90.4833,10.0,4.479,105.0,,'11111222,11111222,99999999' 
WAVCIS,ioos:station:WAVCIS:CSI06:1,2013-09-07T01:00:00Z,28.8667,-90.4833,10.0,3.98,96.0,,'11111222,11111222,99999999' 
WAVCIS,ioos:station:WAVCIS:CSI06:1,2013-09-07T02:00:00Z,28.8667,-90.4833,10.0,4.176,91.0,,'11111222,11111222,99999999' 
WAVCIS,ioos:station:WAVCIS:CSI06:1,2013-09-07T03:00:00Z,28.8667,-90.4833,10.0,4.183,106.0,,'11111222,11111222,99999999' 
WAVCIS,ioos:station:WAVCIS:CSI06:1,2013-09-07T04:00:00Z,28.8667,-90.4833,10.0,4.429,101.0,,'11111222,11111222,99999999' 
WAVCIS,ioos:station:WAVCIS:CSI06:1,2013-09-07T05:00:00Z,28.8667,-90.4833,10.0,4.123,91.0,,'11111222,11111222,99999999' 
WAVCIS,ioos:station:WAVCIS:CSI06:1,2013-09-07T06:00:00Z,28.8667,-90.4833,10.0,4.55,104.0,,'11111222,11111222,99999999' 
WAVCIS,ioos:station:WAVCIS:CSI06:1,2013-09-07T07:00:00Z,28.8667,-90.4833,10.0,4.142,109.0,,'11111222,11111222,99999999' 
WAVCIS,ioos:station:WAVCIS:CSI06:1,2013-09-07T08:00:00Z,28.8667,-90.4833,10.0,4.678,112.0,,'11111222,11111222,99999999' 
WAVCIS,ioos:station:WAVCIS:CSI06:1,2013-09-07T09:00:00Z,28.8667,-90.4833,10.0,4.717,103.0,,'11111222,11111222,99999999' 
WAVCIS,ioos:station:WAVCIS:CSI06:1,2013-09-07T10:00:00Z,28.8667,-90.4833,10.0,5.444,97.0,,'11111222,11111222,99999999' 
WAVCIS,ioos:station:WAVCIS:CSI06:1,2013-09-07T11:00:00Z,28.8667,-90.4833,10.0,4.87,89.0,,'11111222,11111222,99999999' 
WAVCIS,ioos:station:WAVCIS:CSI06:1,2013-09-07T12:00:00Z,28.8667,-90.4833,10.0,5.01,89.0,,'11111222,11111222,99999999' 
WAVCIS,ioos:station:WAVCIS:CSI06:1,2013-09-07T13:00:00Z,28.8667,-90.4833,10.0,3.826,103.0,,'11111222,11111222,99999999' 
WAVCIS,ioos:station:WAVCIS:CSI06:1,2013-09-07T14:00:00Z,28.8667,-90.4833,10.0,2.367,169.0,,'11111222,11111222,99999999' 
WAVCIS,ioos:station:WAVCIS:CSI06:1,2013-09-07T15:00:00Z,28.8667,-90.4833,10.0,1.05,120.0,,'11111222,11111222,99999999' 
WAVCIS,ioos:station:WAVCIS:CSI06:1,2013-09-07T16:00:00Z,28.8667,-90.4833,10.0,3.482,98.0,,'11111222,11111222,99999999' 
WAVCIS,ioos:station:WAVCIS:CSI06:1,2013-09-07T17:00:00Z,28.8667,-90.4833,10.0,4.441,75.0,,'11111222,11111222,99999999' 
WAVCIS,ioos:station:WAVCIS:CSI06:1,2013-09-07T18:00:00Z,28.8667,-90.4833,10.0,4.996,86.0,,'11111222,11111222,99999999' 
WAVCIS,ioos:station:WAVCIS:CSI06:1,2013-09-07T19:00:00Z,28.8667,-90.4833,10.0,5.756,85.0,,'11111222,11111222,99999999' 
WAVCIS,ioos:station:WAVCIS:CSI06:1,2013-09-07T20:00:00Z,28.8667,-90.4833,10.0,10.14,176.0,,'11111222,11111222,99999999' 
WAVCIS,ioos:station:WAVCIS:CSI06:1,2013-09-07T21:00:00Z,28.8667,-90.4833,10.0,3.381,186.0,,'11111222,11111222,99999999' 
WAVCIS,ioos:station:WAVCIS:CSI06:1,2013-09-07T22:00:00Z,28.8667,-90.4833,10.0,0.081,288.0,,'11111222,11111222,99999999' 
WAVCIS,ioos:station:WAVCIS:CSI06:1,2013-09-07T23:00:00Z,28.8667,-90.4833,10.0,2.806,238.0,,'11111222,11111222,99999999' 
WAVCIS,ioos:station:WAVCIS:CSI06:1,2013-09-08T00:00:00Z,28.8667,-90.4833,10.0,1.508,180.0,,'11111222,11111222,99999999' 
WAVCIS,ioos:station:WAVCIS:CSI06:1,2013-09-08T01:00:00Z,28.8667,-90.4833,10.0,1.601,29.0,,'11111222,11111222,99999999' 
WAVCIS,ioos:station:WAVCIS:CSI06:1,2013-09-08T02:00:00Z,28.8667,-90.4833,10.0,1.212,300.0,,'11111222,11111222,99999999' 
WAVCIS,ioos:station:WAVCIS:CSI06:1,2013-09-08T03:00:00Z,28.8667,-90.4833,10.0,1.416,294.0,,'11111222,11111222,99999999' 
WAVCIS,ioos:station:WAVCIS:CSI06:1,2013-09-08T04:00:00Z,28.8667,-90.4833,10.0,1.859,327.0,,'11111222,11111222,99999999' 
WAVCIS,ioos:station:WAVCIS:CSI06:1,2013-09-08T05:00:00Z,28.8667,-90.4833,10.0,1.164,50.0,,'11111222,11111222,99999999' 
WAVCIS,ioos:station:WAVCIS:CSI06:1,2013-09-08T06:00:00Z,28.8667,-90.4833,10.0,2.21,63.0,,'11111222,11111222,99999999' 
WAVCIS,ioos:station:WAVCIS:CSI06:1,2013-09-08T07:00:00Z,28.8667,-90.4833,10.0,3.888,57.0,,'11111222,11111222,99999999' 
WAVCIS,ioos:station:WAVCIS:CSI06:1,2013-09-08T08:00:00Z,28.8667,-90.4833,10.0,5.604,52.0,,'11111222,11111222,99999999' 
WAVCIS,ioos:station:WAVCIS:CSI06:1,2013-09-08T09:00:00Z,28.8667,-90.4833,10.0,5.239,67.0,,'11111222,11111222,99999999' 
WAVCIS,ioos:station:WAVCIS:CSI06:1,2013-09-08T10:00:00Z,28.8667,-90.4833,10.0,4.639,61.0,,'11111222,11111222,99999999' 
WAVCIS,ioos:station:WAVCIS:CSI06:1,2013-09-08T11:00:00Z,28.8667,-90.4833,10.0,5.193,75.0,,'11111222,11111222,99999999' 
WAVCIS,ioos:station:WAVCIS:CSI06:1,2013-09-08T12:00:00Z,28.8667,-90.4833,10.0,4.167,84.0,,'11111222,11111222,99999999' 
WAVCIS,ioos:station:WAVCIS:CSI06:1,2013-09-08T13:00:00Z,28.8667,-90.4833,10.0,5.333,126.0,,'11111222,11111222,99999999' 
WAVCIS,ioos:station:WAVCIS:CSI06:1,2013-09-08T14:00:00Z,28.8667,-90.4833,10.0,5.458,337.0,,'11111222,11111222,99999999' 
WAVCIS,ioos:station:WAVCIS:CSI06:1,2013-09-08T15:00:00Z,28.8667,-90.4833,10.0,4.583,89.0,,'11111222,11111222,99999999' 
WAVCIS,ioos:station:WAVCIS:CSI06:1,2013-09-08T16:00:00Z,28.8667,-90.4833,10.0,10.12,77.0,,'11111222,11111222,99999999' 
WAVCIS,ioos:station:WAVCIS:CSI06:1,2013-09-08T17:00:00Z,28.8667,-90.4833,10.0,6.125,77.0,,'11111222,11111222,99999999' 
WAVCIS,ioos:station:WAVCIS:CSI06:1,2013-09-08T18:00:00Z,28.8667,-90.4833,10.0,6.657,102.0,,'11111222,11111222,99999999' 
WAVCIS,ioos:station:WAVCIS:CSI06:1,2013-09-08T19:00:00Z,28.8667,-90.4833,10.0,6.535,109.0,,'11111222,11111222,99999999' 
WAVCIS,ioos:station:WAVCIS:CSI06:1,2013-09-08T20:00:00Z,28.8667,-90.4833,10.0,6.145,111.0,,'11111222,11111222,99999999' 
WAVCIS,ioos:station:WAVCIS:CSI06:1,2013-09-08T21:00:00Z,28.8667,-90.4833,10.0,5.933,119.0,,'11111222,11111222,99999999' 
WAVCIS,ioos:station:WAVCIS:CSI06:1,2013-09-08T22:00:00Z,28.8667,-90.4833,10.0,5.327,116.0,,'11111222,11111222,99999999' 
WAVCIS,ioos:station:WAVCIS:CSI06:1,2013-09-08T23:00:00Z,28.8667,-90.4833,10.0,4.441,118.0,,'11111222,11111222,99999999' 
WAVCIS,ioos:station:WAVCIS:CSI06:1,2013-09-09T00:00:00Z,28.8667,-90.4833,10.0,4.009,123.0,,'11111222,11111222,99999999' 
WAVCIS,ioos:station:WAVCIS:CSI06:1,2013-09-09T01:00:00Z,28.8667,-90.4833,10.0,3.468,124.0,,'11111222,11111222,99999999' 
WAVCIS,ioos:station:WAVCIS:CSI06:1,2013-09-09T02:00:00Z,28.8667,-90.4833,10.0,3.597,106.0,,'11111222,11111222,99999999' 
WAVCIS,ioos:station:WAVCIS:CSI06:1,2013-09-09T03:00:00Z,28.8667,-90.4833,10.0,4.481,99.0,,'11111222,11111222,99999999' 
WAVCIS,ioos:station:WAVCIS:CSI06:1,2013-09-09T04:00:00Z,28.8667,-90.4833,10.0,5.414,106.0,,'11111222,11111222,99999999' 
WAVCIS,ioos:station:WAVCIS:CSI06:1,2013-09-09T05:00:00Z,28.8667,-90.4833,10.0,5.762,103.0,,'11111222,11111222,99999999' 
WAVCIS,ioos:station:WAVCIS:CSI06:1,2013-09-09T06:00:00Z,28.8667,-90.4833,10.0,5.832,93.0,,'11111222,11111222,99999999' 
WAVCIS,ioos:station:WAVCIS:CSI06:1,2013-09-09T07:00:00Z,28.8667,-90.4833,10.0,5.618,91.0,,'11111222,11111222,99999999' 
WAVCIS,ioos:station:WAVCIS:CSI06:1,2013-09-09T08:00:00Z,28.8667,-90.4833,10.0,5.728,96.0,,'11111222,11111222,99999999' 
WAVCIS,ioos:station:WAVCIS:CSI06:1,2013-09-09T09:00:00Z,28.8667,-90.4833,10.0,5.949,105.0,,'11111222,11111222,99999999' 
WAVCIS,ioos:station:WAVCIS:CSI06:1,2013-09-09T10:00:00Z,28.8667,-90.4833,10.0,6.202,94.0,,'11111222,11111222,99999999' 
WAVCIS,ioos:station:WAVCIS:CSI06:1,2013-09-09T11:00:00Z,28.8667,-90.4833,10.0,6.119,102.0,,'11111222,11111222,99999999' 
WAVCIS,ioos:station:WAVCIS:CSI06:1,2013-09-09T12:00:00Z,28.8667,-90.4833,10.0,5.625,89.0,,'11111222,11111222,99999999' 
WAVCIS,ioos:station:WAVCIS:CSI06:1,2013-09-09T13:00:00Z,28.8667,-90.4833,10.0,6.545,90.0,,'11111222,11111222,99999999' 
WAVCIS,ioos:station:WAVCIS:CSI06:1,2013-09-09T14:00:00Z,28.8667,-90.4833,10.0,6.886,85.0,,'11111222,11111222,99999999' 
WAVCIS,ioos:station:WAVCIS:CSI06:1,2013-09-09T15:00:00Z,28.8667,-90.4833,10.0,7.13,88.0,,'11111222,11111222,99999999' 
WAVCIS,ioos:station:WAVCIS:CSI06:1,2013-09-09T16:00:00Z,28.8667,-90.4833,10.0,7.32,95.0,,'11111222,11111222,99999999' 
WAVCIS,ioos:station:WAVCIS:CSI06:1,2013-09-09T17:00:00Z,28.8667,-90.4833,10.0,6.957,92.0,,'11111222,11111222,99999999' 
WAVCIS,ioos:station:WAVCIS:CSI06:1,2013-09-09T18:00:00Z,28.8667,-90.4833,10.0,6.645,95.0,,'11111222,11111222,99999999' 
WAVCIS,ioos:station:WAVCIS:CSI06:1,2013-09-09T19:00:00Z,28.8667,-90.4833,10.0,6.739,102.0,,'11111222,11111222,99999999' 
WAVCIS,ioos:station:WAVCIS:CSI06:1,2013-09-09T20:00:00Z,28.8667,-90.4833,10.0,8.25,101.0,,'11111222,11111222,99999999' 
WAVCIS,ioos:station:WAVCIS:CSI06:1,2013-09-09T21:00:00Z,28.8667,-90.4833,10.0,7.69,109.0,,'11111222,11111222,99999999' 
WAVCIS,ioos:station:WAVCIS:CSI06:1,2013-09-09T22:00:00Z,28.8667,-90.4833,10.0,7.02,100.0,,'11111222,11111222,99999999' 
WAVCIS,ioos:station:WAVCIS:CSI06:1,2013-09-09T23:00:00Z,28.8667,-90.4833,10.0,6.895,106.0,,'11111222,11111222,99999999' 
WAVCIS,ioos:station:WAVCIS:CSI06:1,2013-09-10T00:00:00Z,28.8667,-90.4833,10.0,6.784,98.0,,'11111222,11111222,99999999' 
WAVCIS,ioos:station:WAVCIS:CSI06:1,2013-09-10T01:00:00Z,28.8667,-90.4833,10.0,7.48,98.0,,'11111222,11111222,99999999' 
WAVCIS,ioos:station:WAVCIS:CSI06:1,2013-09-10T02:00:00Z,28.8667,-90.4833,10.0,6.87,97.0,,'11111222,11111222,99999999' 
WAVCIS,ioos:station:WAVCIS:CSI06:1,2013-09-10T03:00:00Z,28.8667,-90.4833,10.0,7.66,98.0,,'11111222,11111222,99999999' 
WAVCIS,ioos:station:WAVCIS:CSI06:1,2013-09-10T04:00:00Z,28.8667,-90.4833,10.0,8.13,101.0,,'11111222,11111222,99999999' 
WAVCIS,ioos:station:WAVCIS:CSI06:1,2013-09-10T05:00:00Z,28.8667,-90.4833,10.0,8.76,98.0,,'11111222,11111222,99999999' 
WAVCIS,ioos:station:WAVCIS:CSI06:1,2013-09-10T06:00:00Z,28.8667,-90.4833,10.0,8.35,98.0,,'11111222,11111222,99999999' 
WAVCIS,ioos:station:WAVCIS:CSI06:1,2013-09-10T07:00:00Z,28.8667,-90.4833,10.0,8.81,109.0,,'11111222,11111222,99999999' 
WAVCIS,ioos:station:WAVCIS:CSI06:1,2013-09-10T08:00:00Z,28.8667,-90.4833,10.0,8.38,98.0,,'11111222,11111222,99999999' 
WAVCIS,ioos:station:WAVCIS:CSI06:1,2013-09-10T09:00:00Z,28.8667,-90.4833,10.0,7.52,104.0,,'11111222,11111222,99999999' 
WAVCIS,ioos:station:WAVCIS:CSI06:1,2013-09-10T10:00:00Z,28.8667,-90.4833,10.0,7.66,87.0,,'11111222,11111222,99999999' 
WAVCIS,ioos:station:WAVCIS:CSI06:1,2013-09-10T11:00:00Z,28.8667,-90.4833,10.0,8.35,92.0,,'11111222,11111222,99999999' 
WAVCIS,ioos:station:WAVCIS:CSI06:1,2013-09-10T12:00:00Z,28.8667,-90.4833,10.0,7.79,84.0,,'11111222,11111222,99999999' 
WAVCIS,ioos:station:WAVCIS:CSI06:1,2013-09-10T13:00:00Z,28.8667,-90.4833,10.0,7.94,99.0,,'11111222,11111222,99999999' 
WAVCIS,ioos:station:WAVCIS:CSI06:1,2013-09-10T14:00:00Z,28.8667,-90.4833,10.0,8.75,101.0,,'11111222,11111222,99999999' 
WAVCIS,ioos:station:WAVCIS:CSI06:1,2013-09-10T15:00:00Z,28.8667,-90.4833,10.0,9.34,98.0,,'11111222,11111222,99999999' 
WAVCIS,ioos:station:WAVCIS:CSI06:1,2013-09-10T16:00:00Z,28.8667,-90.4833,10.0,8.99,93.0,,'11111222,11111222,99999999' 
WAVCIS,ioos:station:WAVCIS:CSI06:1,2013-09-10T17:00:00Z,28.8667,-90.4833,10.0,8.86,94.0,,'11111222,11111222,99999999' 
WAVCIS,ioos:station:WAVCIS:CSI06:1,2013-09-10T18:00:00Z,28.8667,-90.4833,10.0,9.28,94.0,,'11111222,11111222,99999999' 
WAVCIS,ioos:station:WAVCIS:CSI06:1,2013-09-10T19:00:00Z,28.8667,-90.4833,10.0,8.98,99.0,,'11111222,11111222,99999999' 
WAVCIS,ioos:station:WAVCIS:CSI06:1,2013-09-10T20:00:00Z,28.8667,-90.4833,10.0,8.36,99.0,,'11111222,11111222,99999999' 
WAVCIS,ioos:station:WAVCIS:CSI06:1,2013-09-10T21:00:00Z,28.8667,-90.4833,10.0,8.51,94.0,,'11111222,11111222,99999999' 
WAVCIS,ioos:station:WAVCIS:CSI06:1,2013-09-10T22:00:00Z,28.8667,-90.4833,10.0,8.54,97.0,,'11111222,11111222,99999999' 
WAVCIS,ioos:station:WAVCIS:CSI06:1,2013-09-10T23:00:00Z,28.8667,-90.4833,10.0,8.16,89.0,,'11111222,11111222,99999999' 
WAVCIS,ioos:station:WAVCIS:CSI06:1,2013-09-11T00:00:00Z,28.8667,-90.4833,10.0,9.04,92.0,,'11111222,11111222,99999999' 
WAVCIS,ioos:station:WAVCIS:CSI06:1,2013-09-11T01:00:00Z,28.8667,-90.4833,10.0,8.88,89.0,,'11111222,11111222,99999999' 
WAVCIS,ioos:station:WAVCIS:CSI06:1,2013-09-11T02:00:00Z,28.8667,-90.4833,10.0,9.25,88.0,,'11111222,11111222,99999999' 
WAVCIS,ioos:station:WAVCIS:CSI06:1,2013-09-11T03:00:00Z,28.8667,-90.4833,10.0,10.22,95.0,,'11111222,11111222,99999999' 
WAVCIS,ioos:station:WAVCIS:CSI06:1,2013-09-11T04:00:00Z,28.8667,-90.4833,10.0,8.85,95.0,,'11111222,11111222,99999999' 
WAVCIS,ioos:station:WAVCIS:CSI06:1,2013-09-11T05:00:00Z,28.8667,-90.4833,10.0,8.85,89.0,,'11111222,11111222,99999999' 
WAVCIS,ioos:station:WAVCIS:CSI06:1,2013-09-11T06:00:00Z,28.8667,-90.4833,10.0,8.24,83.0,,'11111222,11111222,99999999' 
WAVCIS,ioos:station:WAVCIS:CSI06:1,2013-09-11T07:00:00Z,28.8667,-90.4833,10.0,7.95,87.0,,'11111222,11111222,99999999' 
WAVCIS,ioos:station:WAVCIS:CSI06:1,2013-09-11T08:00:00Z,28.8667,-90.4833,10.0,7.6,94.0,,'11111222,11111222,99999999' 
WAVCIS,ioos:station:WAVCIS:CSI06:1,2013-09-11T09:00:00Z,28.8667,-90.4833,10.0,6.242,93.0,,'11111222,11111222,99999999' 
WAVCIS,ioos:station:WAVCIS:CSI06:1,2013-09-11T10:00:00Z,28.8667,-90.4833,10.0,5.874,96.0,,'11111222,11111222,99999999' 
WAVCIS,ioos:station:WAVCIS:CSI06:1,2013-09-11T11:00:00Z,28.8667,-90.4833,10.0,5.201,69.0,,'11111222,11111222,99999999' 
WAVCIS,ioos:station:WAVCIS:CSI06:1,2013-09-11T12:00:00Z,28.8667,-90.4833,10.0,3.874,61.0,,'11111222,11111222,99999999' 
WAVCIS,ioos:station:WAVCIS:CSI06:1,2013-09-11T13:00:00Z,28.8667,-90.4833,10.0,8.8,97.0,,'11111222,11111222,99999999' 
WAVCIS,ioos:station:WAVCIS:CSI06:1,2013-09-11T14:00:00Z,28.8667,-90.4833,10.0,9.68,89.0,,'11111222,11111222,99999999' 
WAVCIS,ioos:station:WAVCIS:CSI06:1,2013-09-11T15:00:00Z,28.8667,-90.4833,10.0,9.2,89.0,,'11111222,11111222,99999999' 
WAVCIS,ioos:station:WAVCIS:CSI06:1,2013-09-11T16:00:00Z,28.8667,-90.4833,10.0,8.35,91.0,,'11111222,11111222,99999999' 
WAVCIS,ioos:station:WAVCIS:CSI06:1,2013-09-11T17:00:00Z,28.8667,-90.4833,10.0,7.95,87.0,,'11111222,11111222,99999999' 
WAVCIS,ioos:station:WAVCIS:CSI06:1,2013-09-11T18:00:00Z,28.8667,-90.4833,10.0,7.62,81.0,,'11111222,11111222,99999999' 
WAVCIS,ioos:station:WAVCIS:CSI06:1,2013-09-11T19:00:00Z,28.8667,-90.4833,10.0,7.8,85.0,,'11111222,11111222,99999999' 
WAVCIS,ioos:station:WAVCIS:CSI06:1,2013-09-11T20:00:00Z,28.8667,-90.4833,10.0,8.49,74.0,,'11111222,11111222,99999999' 
WAVCIS,ioos:station:WAVCIS:CSI06:1,2013-09-11T21:00:00Z,28.8667,-90.4833,10.0,8.23,81.0,,'11111222,11111222,99999999' 
WAVCIS,ioos:station:WAVCIS:CSI06:1,2013-09-11T22:00:00Z,28.8667,-90.4833,10.0,9.41,85.0,,'11111222,11111222,99999999' 
WAVCIS,ioos:station:WAVCIS:CSI06:1,2013-09-11T23:00:00Z,28.8667,-90.4833,10.0,10.22,71.0,,'11111222,11111222,99999999' 
WAVCIS,ioos:station:WAVCIS:CSI06:1,2013-09-12T00:00:00Z,28.8667,-90.4833,10.0,10.0,68.0,,'11111222,11111222,99999999' 
WAVCIS,ioos:station:WAVCIS:CSI06:1,2013-09-12T01:00:00Z,28.8667,-90.4833,10.0,10.39,77.0,,'11111222,11111222,99999999' 
WAVCIS,ioos:station:WAVCIS:CSI06:1,2013-09-12T02:00:00Z,28.8667,-90.4833,10.0,9.88,76.0,,'11111222,11111222,99999999' 